www.pogodaiklimat.ru

Погода и климат >> Архив погоды >> Мьянма >> Бассейн


ПОГОДА в Бассейне

  • Прогноз погоды в Бассейне
  • Монитор погоды в Бассейне

АРХИВ ПОГОДЫ в Бассейне

Время (UTC), дата Ветер
(напр.,м/с)
 
Видим.   Явления Облачность Т
(С)
Тd
(С)
f
(%)
Тe
(С)
Тes
(С)
Комфортность P
(гПа)
Po
(гПа)
Тmin
(С)
Tmax
(С)
R
(мм)
R24
(мм)
S
(см)
12 10.08 штиль 0 6000 м 9/5 300 м
[Cb cap Ac As]
+29.0 +26.0 84 +44 +44 опасность
перегрева
999.4 998.3 +30.5
15 10.08 штиль 0 5000 м слаб. морось {дождь} 9/5 300 м
[Cb cap Ac As]
+28.0 +27.0 94 +44 +44 опасность
перегрева
1001.7 1000.6
00 11.08 штиль 0 6000 м слаб. дождь 10/8 300 м
[Cb cap Ac As]
+26.5 +26.0 97 +40 +40 очень
душно
1000.0 998.9 +22.2 2
03 11.08 СЗ 2 7000 м слаб. дождь 10/8 300 м
[Cb cap Ac As]
+25.0 +25.0 100 +36 +36 очень
душно
1001.4 1000.3
06 11.08 штиль 0 7000 м слаб. дождь {морось} 10/6 300 м
[Cb cap Ac As]
+26.5 +26.5 100 +40 +44 очень
душно
1001.8 1000.7
09 11.08 штиль 0 7000 м слаб. дождь 10/6 300 м
[Cb cap Ac As]
+25.5 +25.5 100 +37 +39 очень
душно
1000.5 999.4
12 11.08 штиль 0 6000 м слаб. дождь 10/6 300 м
[Cb cap Ac As]
+26.0 +25.5 97 +38 +38 очень
душно
1000.1 999.0 +28.8 38
15 11.08 штиль 0 6000 м 10/6 300 м
[Cb cap Ac As]
+25.5 +25.0 97 +36 +36 очень
душно
1002.0 1000.9
00 12.08 З 1 6000 м слаб. дождь 10/6 300 м
[Cb cap Ac As]
+24.5 +24.5 100 +34 +34 очень
душно
1002.5 1001.3 +20.5 65
03 12.08 штиль 0 7000 м в посл. час дождь 10/6 300 м
[Cb cap Ac As]
+25.0 +25.0 100 +36 +38 очень
душно
1003.8 1002.7
06 12.08 Ю 1 7000 м 10/6 300 м
[Cb cap Ac As]
+27.5 +27.0 97 +43 +46 опасность
перегрева
1003.9 1002.8
09 12.08 штиль 0 7000 м слаб. дождь 10/8 300 м
[Cb cap Ac As]
+25.0 +25.0 100 +36 +36 очень
душно
1003.2 1002.1
12 12.08 штиль 0 6000 м слаб. дождь 10/6 300 м
[Cb cap Ac As]
+25.0 +25.0 100 +36 +36 очень
душно
1003.7 1002.6 +28.0 31
15 12.08 штиль 0 6000 м слаб. дождь 10/6 300 м
[Cb cap Ac As]
+25.0 +25.0 100 +36 +36 очень
душно
1004.9 1003.7
00 13.08 штиль 0 6000 м 8/4 300 м
[Cb cap Ac As]
+25.0 +25.0 100 +36 +36 очень
душно
1005.2 1004.0 +21.0 11
03 13.08 ЮЗ 1 7000 м 8/5 300 м
[Cb cap Ac As]
+28.0 +27.5 97 +45 +50 опасность
перегрева
1006.8 1005.7
06 13.08 ЮЗ 3 7000 м слаб. морось {дождь} 9/6 300 м
[Cb cap Ac As]
+28.5 +28.3 99 +48 +51 опасность
перегрева
1007.4 1006.3
09 13.08 ЮЗ 1 7000 м в посл. час дождь 10/6 300 м
[Cb cap Ac As]
+27.0 +26.8 99 +42 +43 опасность
перегрева
1006.3 1005.2
12 13.08 штиль 0 6000 м 10/6 300 м
[Cb cap Ac As]
+27.0 +27.0 100 +42 +42 опасность
перегрева
1006.8 1005.7 +28.8 39
15 13.08 штиль 0 6000 м 10/6 300 м
[Cb cap Ac As]
+27.0 +27.0 100 +42 +42 опасность
перегрева
1008.6 1007.5
00 14.08 штиль 0 6000 м 10/6 300 м
[Cb cap Ac As]
+26.0 +26.0 100 +39 +39 очень
душно
1009.0 1007.8 +22.2 39
03 14.08 З 2 7000 м 10/6 300 м
[Cb cap Ac As]
+27.5 +27.0 97 +43 +45 опасность
перегрева
1009.3 1008.2
06 14.08 ЮЗ 1 7000 м слаб. дождь 10/6 300 м
[Cb cap Ac As]
+28.0 +28.0 100 +46 +49 опасность
перегрева
1009.5 1008.4
09 14.08 ЮЗ 1 7000 м 10/6 300 м
[Cb cap Ac As]
+28.5 +28.0 97 +47 +48 опасность
перегрева
1007.6 1006.5
12 14.08 штиль 0 6000 м 8/4 300 м
[Cb cap Ac As]
+28.0 +27.5 97 +45 +45 опасность
перегрева
1007.4 1006.3 +29.1 7
15 14.08 штиль 0 5000 м 8/4 300 м
[Cb cap Ac As]
+27.0 +26.5 97 +41 +41 опасность
перегрева
1009.0 1007.9
03 15.08 штиль 0 7000 м 6/4 300 м
[Cb cap Ac lent]
+28.5 +27.5 94 +46 +54 опасность
перегрева
1009.6 1008.5
06 15.08 З 2 8000 м 8/5 300 м
[Cb cap Ac lent]
+31.5 +27.0 77 +49 +55 опасность
перегрева
1008.9 1007.8
09 15.08 З 2 8000 м 8/5 300 м
[Cb cap Ac lent]
+31.5 +27.0 77 +49 +52 опасность
перегрева
1006.5 1005.4
12 15.08 ЮЗ 1 6000 м 10/6 300 м
[Cb cap Ac As]
+29.5 +25.5 79 +43 +43 опасность
перегрева
1006.5 1005.4 +31.5
15 15.08 штиль 0 6000 м 9/6 300 м
[Cb cap Ac As]
+28.0 +27.0 94 +44 +44 опасность
перегрева
1007.7 1006.6
00 16.08 штиль 0 6000 м 8/5 300 м
[Cb cap Ac As]
+26.5 +26.0 97 +40 +40 очень
душно
1006.2 1005.1 +22.7
03 16.08 ЮЗ 1 7000 м 10/6 300 м
[Cb cap Ac As]
+29.0 +28.0 94 +48 +50 опасность
перегрева
1007.2 1006.1
06 16.08 З 2 8000 м 8/5 300 м
[Cb cap Ac As]
+31.0 +27.5 82 +50 +56 опасность
перегрева
1007.0 1005.9
09 16.08 З 2 9000 м 6/5 300 м
[Cb cap Ac lent]
+32.0 +27.0 75 +50 +54 опасность
перегрева
1005.1 1004.0
12 16.08 штиль 0 6000 м 5/3 300 м
[Cb cap Ac lent Ci fib]
+30.0 +26.0 79 +45 +45 опасность
перегрева
1004.1 1003.0 +32.1
00 17.08 штиль 0 6000 м 4/1 300 м
[Sc Ac lent Ci fib]
+26.5 +26.0 97 +40 +40 очень
душно
1005.8 1004.7 +22.4
06 17.08 ЮЗ 2 8000 м 6/5 300 м
[Cb cap Ac lent]
+32.5 +27.5 75 +52 +61 опасность
перегрева
1006.8 1005.7
09 17.08 З 2 8000 м {дождь} 9/6 300 м
[Cb cap Ac As]
+28.5 +25.5 84 +42 +44 опасность
перегрева
1005.0 1003.9

 

Местоположение метеостанции Бассейн (Мьянма): широта 16.77 долгота 94.77 высота над уровнем моря 10 м.

В архиве по умолчанию представлена погода в Бассейне за последнюю неделю. Архивные данные за месяц целиком и за предыдущие месяцы, начиная с января 2011 года, Вы можете получить, выбрав интересующий диапазон дат из раскрывающегося списка и нажав кнопку "Ввод!".


*Определитесь, кто Вы:
робот инопланетянин человек

Внимание! Время в таблицах - всемирное. Для получения местного времени необходимо прибавить поправку, которая равна 6.5 ч.

Смотрите также архив погоды в соседних городах и на ближайших метеорологических станциях:

Погода в Гва (Мьянма) (92 км)
Погода в Маубине (Мьянма) (94 км)
Погода в Пхьяпоуне (Мьянма) (111 км)
Погода в Хинтаде (Мьянма) (122 км)
Погода в Хмавби (Мьянма) (139 км)
Погода у Янгоне (Мьянма) (149 км)
Погода в Мингаладоне (Мьянма) (151 км)
Погода в Пегу (Мьянма) (194 км)
Погода в Тандве (Мьянма) (194 км)
Погода в Проме (Мьянма) (231 км)

Пояснения к столбцам:

Ветер - указаны скорость ветра в м/с - средняя за 10 мин, порывы в срок и между сроками (в фигурных скобках) и направление, откуда дует ветер: С - северный, СВ - северо-восточный, В - восточный, ЮВ - юго-восточный, Ю - южный, ЮЗ - юго-западный, З - западный, СЗ - северо-западный.
Видимость - горизонтальная дальность видимости в метрах или километрах. При видимости от 1 до 10 км при отсутствии осадков обычно наблюдается дымка, при ухудшении видимости до 1 км и менее - туман. В сухую погоду видимость может ухудшаться дымом, пылью или мглою.
Явления - указаны атмосферные явления, наблюдавшиеся в срок или в последний час перед сроком; фигурными скобками обозначены явления, наблюдавшиеся между сроками (за 1-3 часа до срока); квадратными скобками обозначены град или гололедные отложения с указанием их диаметра в мм.
Облачность - указаны через наклонную черту общая и нижняя облачность в баллах и высота нижней границы облаков в метрах; квадратными скобками обозначены формы облаков: Ci - перистые, Cs - перисто-слоистые, Cc - перисто-кучевые, Ac - высококучевые, As - высокослоистые, Sc - слоисто-кучевые, Ns - слоисто-дождевые, Cu - кучевые, Cb - кучево-дождевые. Подробнее классификацию облаков см. в Атласе облаков (PDF).
T - Температура воздуха - температура, измеренная на высоте 2 м над землей.
Td - Температура точки росы - температура, при понижении до которой содержащийся в воздухе водяной пар достигнет насыщения.
f - Относительная влажность воздуха - влажноcть воздуха, измеренная на высоте 2 м над землей.
Te - Эффективная температура - температура, которую ощущает одетый по сезону человек в тени. Характеристика душности погоды. При расчете учитывается влияние влажности воздуха и скорости ветра на теплоощущения человека.
Tes - Эффективная температура на солнце - температура, которую ощущает человек, с поправкой на солнечный нагрев. Характеристика знойности погоды. Зависит от высоты солнца над горизонтом, облачности и скорости ветра. Ночью, в пасмурную погоду, а также при ветре 12 м/с и более поправка равна нулю.
P - Атмосферное давление - приведенное к уровню моря атмосферное давление.
Po - Атмосферное давление - измеренное на уровне метеостанции атмосферное давление.
Tmin - Минимальная температура - минимум температуры воздуха на высоте 2 м над землей.
Tmax - Максимальная температура - максимум температуры воздуха на высоте 2 м над землей.
R - Количество осадков - Количество выпавших осадков за период времени, мм. При наведении курсора мыши на число - период времени, за который выпало указанное количество осадков.
R24 - Количество осадков - Количество выпавших осадков за 24 часа, мм.
S - Снежный покров - Высота снежного покрова, см. При наведении курсора мыши на число - состояние снежного покрова и степень покрытия местности в баллах.